Location: ?????
(37.7324°N, 23.9257°E)
Time: 21:49:54
(UTC+00:00)

CZ-2C R/B - Pass Details

Date: 29 November 2020
Orbit: 390 x 585 km, 35.0° (Epoch: 18 January)

Event Time Altitude Azimuth Distance (km) Brightness Sun altitude
Rises 04:35:10 0° 215° (SW) 2,285 4.3 -8.8°
Reaches altitude 10° 04:38:00 10° 188° (S) 1,415 3.6 -8.3°
Maximum altitude 04:39:44 14° 155° (SSE) 1,208 3.8 -7.9°
Drops below altitude 10° 04:41:27 10° 122° (ESE) 1,411 5.0 -7.6°
Sets 04:44:16 0° 95° (E) 2,273 6.2 -7.1°
